TimeEST,TemperatureF,Dew PointF,Humidity,Sea Level PressureIn,VisibilityMPH,Wind Direction,Wind SpeedMPH,Gust SpeedMPH,PrecipitationIn,Events,Conditions,WindDirDegrees,DateUTC
12:54 AM,39.9,25.0,55,29.78,-9999.0,NW,16.1,24.2,N/A,,Overcast,320,2012-12-30 05:54:00
1:54 AM,39.9,25.0,55,29.81,-9999.0,NNW,16.1,29.9,N/A,,Overcast,330,2012-12-30 06:54:00
2:54 AM,39.9,24.1,53,29.84,-9999.0,NW,23.0,33.4,N/A,,Partly Cloudy,320,2012-12-30 07:54:00
3:54 AM,39.0,24.1,55,29.86,-9999.0,NNW,18.4,25.3,N/A,,Mostly Cloudy,340,2012-12-30 08:54:00
4:54 AM,39.0,23.0,53,29.90,-9999.0,NNW,17.3,24.2,N/A,,Overcast,330,2012-12-30 09:54:00
5:54 AM,39.0,21.0,49,29.93,-9999.0,NNW,16.1,26.5,N/A,,Mostly Cloudy,330,2012-12-30 10:54:00
6:54 AM,37.4,21.2,52,29.98,-9999.0,NNW,10.4,20.7,N/A,,Clear,330,2012-12-30 11:54:00
7:54 AM,39.0,23.0,53,30.01,-9999.0,NW,13.8,25.3,N/A,,Overcast,310,2012-12-30 12:54:00
8:54 AM,39.9,23.0,51,30.05,-9999.0,NW,17.3,31.1,N/A,,Mostly Cloudy,310,2012-12-30 13:54:00
9:54 AM,41.0,21.9,47,30.07,-9999.0,NW,21.9,36.8,N/A,,Partly Cloudy,320,2012-12-30 14:54:00
10:54 AM,41.0,21.0,45,30.09,-9999.0,NNW,21.9,35.7,N/A,,Mostly Cloudy,330,2012-12-30 15:54:00
11:54 AM,43.0,18.0,37,30.09,-9999.0,NNW,26.5,46.0,N/A,,Partly Cloudy,340,2012-12-30 16:54:00
12:54 PM,44.1,19.9,38,30.10,-9999.0,NNW,19.6,31.1,N/A,,Scattered Clouds,340,2012-12-30 17:54:00
1:54 PM,43.0,18.0,37,30.10,-9999.0,NW,24.2,42.6,N/A,,Partly Cloudy,320,2012-12-30 18:54:00
2:54 PM,42.1,18.0,38,30.14,-9999.0,NW,18.4,34.5,N/A,,Clear,320,2012-12-30 19:54:00
3:54 PM,41.0,18.0,40,30.19,-9999.0,NNW,20.7,29.9,N/A,,Partly Cloudy,330,2012-12-30 20:54:00
4:54 PM,39.0,18.0,43,30.22,-9999.0,NW,16.1,23.0,N/A,,Clear,320,2012-12-30 21:54:00
5:54 PM,37.9,18.0,45,30.26,-9999.0,NNW,13.8,-,N/A,,Clear,330,2012-12-30 22:54:00
6:54 PM,37.0,19.0,48,30.28,-9999.0,NNW,9.2,-,N/A,,Clear,330,2012-12-30 23:54:00
7:54 PM,36.0,18.0,48,30.27,-9999.0,NNW,8.1,-,N/A,,Clear,340,2012-12-31 00:54:00
8:54 PM,34.0,18.0,52,30.28,-9999.0,NW,5.8,-,N/A,,Clear,320,2012-12-31 01:54:00
9:54 PM,34.0,18.0,52,30.31,-9999.0,NW,4.6,-,N/A,,Clear,310,2012-12-31 02:54:00
10:54 PM,32.0,18.0,56,30.33,-9999.0,NNW,6.9,-,N/A,,Clear,330,2012-12-31 03:54:00
11:54 PM,33.1,19.0,56,30.31,-9999.0,North,10.4,-,N/A,,Clear,350,2012-12-31 04:54:00